Regional Weather Roundup
Issued by NWS Goodland, KS

Home | Current Version | Previous Version | Text Only | Print | Product List | Glossary On
Versions: 1 2 3 4 5 6 7 8 9 10 11 12 13 14 15 16 17 18 19 20 21 22 23 24 25 26 27 28 29 30 31 32 33 34 35 36 37 38 39 40 41 42 43 44 45 46 47 48 49 50
000
ASUS43 KGLD 232308
RWRGLD

GOODLAND FORECAST AREA HOURLY WEATHER ROUNDUP
NATIONAL WEATHER SERVICE GOODLAND KS
400 PM MST MON JAN 23 2017

...OFFICIAL OBSERVATIONS...

CITY           SKY/WX    TMP DP  RH WIND       PRES   REMARKS
GOODLAND KS    CLEAR     55  30  38 NE6       29.54S
HILL CITY KS   CLEAR     56  33  42 S8        29.59S
IMPERIAL NEB   CLEAR     50  27  40 NE3       29.56S
MCCOOK NEB     CLEAR     53  31  42 SE9       29.57S
AKRON CO       CLOUDY    43  24  47 E10       29.53S
BURLINGTON CO  CLEAR     53  32  44 E10       29.54R
LIMON CO       SUNNY     51  21  30 SW18G26   29.52S
$$

...UNOFFICIAL OBSERVATIONS...

CITY           SKY/WX    TMP DP  RH WIND       PRES   REMARKS
LENORA KS        N/A     53  32  45 SE6         N/A
NORTON KS      CLEAR     54  28  37 SE7       29.58S
SHARON SPRINGS   N/A     58  34  41 SW12G20     N/A
TRENTON NEB      N/A     51  32  48 CALM        N/A
KIT CARSON CO    N/A     56  29  35 MISG        N/A
YUMA CO        FAIR      39  28  65 NE8       29.55S
$$




USA.gov is the U.S. government's official web portal to all federal, state and local government web resources and services.